KB1RMA-13 Weather Reports


time (UTC)temp
C
wind
direction
speed
KPH
gust
KPH
rain 1hr
cm
rain 24hr
cm
rain mn
cm
humidity
%
barometer
mb
20260505052649 13 225 9.7 27.4 0.00 0.00 0.00 62 1009.7
20260505052146 13 282 6.4 29.0 0.00 0.00 0.00 63 1009.5
20260505051643 13 237 12.9 22.5 0.00 0.00 0.00 62 1009.7
20260505051142 13 195 9.7 19.3 0.00 0.00 0.00 62 1009.8
20260505050639 13 228 14.5 20.9 0.00 0.00 0.00 62 1009.7
20260505050137 14 227 16.1 20.9 0.00 0.00 0.00 61 1009.7
20260505041607 14 216 8.0 17.7 0.00 0.00 0.00 58 1009.8
20260505041104 14 213 11.3 20.9 0.00 0.00 0.00 58 1009.6
20260505040601 14 206 11.3 29.0 0.00 0.00 0.00 58 1009.4
20260505040058 15 196 20.9 24.1 0.00 0.00 0.00 57 1009.4
20260505035554 15 206 12.9 37.0 0.00 0.00 0.00 57 1009.6
20260505035051 15 225 16.1 25.7 0.00 0.00 0.00 57 1009.5
20260505034548 15 233 16.1 22.5 0.00 0.00 0.00 57 1009.6
20260505034044 15 222 9.7 25.7 0.00 0.00 0.00 56 1009.5
20260505033541 15 236 14.5 27.4 0.00 0.00 0.00 56 1009.3
20260505033040 15 200 16.1 30.6 0.00 0.00 0.00 55 1009.3
20260505032537 15 208 19.3 33.8 0.00 0.00 0.00 55 1009.4
20260505032033 15 201 14.5 25.7 0.00 0.00 0.00 55 1009.3
20260505031531 15 223 9.7 17.7 0.00 0.00 0.00 55 1009.2
20260505031027 15 216 8.0 25.7 0.00 0.00 0.00 54 1009.1
20260505030524 15 217 11.3 27.4 0.00 0.00 0.00 54 1009.1
20260505030020 15 214 17.7 24.1 0.00 0.00 0.00 54 1009.4
20260505025516 15 242 8.0 14.5 0.00 0.00 0.00 54 1009.4
20260505025016 15 213 22.5 22.5 0.00 0.00 0.00 54 1009.2
20260505024512 15 211 11.3 29.0 0.00 0.00 0.00 53 1009.2
20260505024009 15 207 35.4 35.4 0.00 0.00 0.00 53 1009.2
20260505023506 15 231 17.7 24.1 0.00 0.00 0.00 53 1009.3
20260505023003 15 209 11.3 22.5 0.00 0.00 0.00 53 1009.2
20260505022501 15 218 16.1 24.1 0.00 0.00 0.00 52 1009.3
20260505021958 16 219 6.4 30.6 0.00 0.00 0.00 52 1009.2
20260505021454 16 208 17.7 25.7 0.00 0.00 0.00 51 1009.3
20260505020950 16 196 14.5 22.5 0.00 0.00 0.00 51 1009.4
20260505020445 16 222 19.3 30.6 0.00 0.00 0.00 51 1009.3
20260505015942 16 201 20.9 35.4 0.00 0.00 0.00 50 1009.3
20260505015440 16 218 16.1 40.2 0.00 0.00 0.00 49 1009.1
20260505014937 16 222 20.9 30.6 0.00 0.00 0.00 49 1009.1
20260505014433 16 204 24.1 25.7 0.00 0.00 0.00 50 1009.2
20260505013931 16 229 20.9 30.6 0.00 0.00 0.00 49 1008.9
20260505013428 16 218 17.7 27.4 0.00 0.00 0.00 49 1008.8
20260505012925 17 200 22.5 35.4 0.00 0.00 0.00 49 1008.9
20260505012423 17 199 19.3 27.4 0.00 0.00 0.00 49 1008.9
20260505011919 17 218 12.9 24.1 0.00 0.00 0.00 49 1008.7
20260505011416 17 196 14.5 32.2 0.00 0.00 0.00 48 1008.5
20260505010913 17 192 12.9 29.0 0.00 0.00 0.00 48 1008.5
20260505010408 17 199 11.3 20.9 0.00 0.00 0.00 48 1008.6
20260505005904 17 206 12.9 24.1 0.00 0.00 0.00 48 1008.2
20260505005401 17 223 20.9 29.0 0.00 0.00 0.00 48 1008.2
20260505004859 17 239 24.1 38.6 0.00 0.00 0.00 47 1007.7
20260505004355 17 200 12.9 33.8 0.00 0.00 0.00 47 1008.0
20260505003852 18 205 11.3 38.6 0.00 0.00 0.00 46 1007.7
20260505003350 18 202 32.2 37.0 0.00 0.00 0.00 46 1007.5
20260505002845 18 213 11.3 24.1 0.00 0.00 0.00 45 1007.5
20260505002342 18 216 12.9 30.6 0.00 0.00 0.00 44 1007.3
20260505001841 18 207 20.9 32.2 0.00 0.00 0.00 44 1006.7
20260505001338 18 225 27.4 33.8 0.00 0.00 0.00 43 1007.0
20260505000835 18 191 19.3 38.6 0.00 0.00 0.00 43 1006.7
20260505000333 18 216 6.4 20.9 0.00 0.00 0.00 42 1006.4
20260504235829 19 202 22.5 30.6 0.00 0.00 0.00 41 1006.4
20260504235326 19 207 6.4 25.7 0.00 0.00 0.00 40 1006.5
20260504234823 20 189 8.0 14.5 0.00 0.00 0.00 37 1006.3
20260504234320 20 194 9.7 14.5 0.00 0.00 0.00 36 1006.2
20260504233817 20 202 6.4 14.5 0.00 0.00 0.00 36 1006.2
20260504233312 20 210 6.4 8.0 0.00 0.00 0.00 36 1005.9
20260504232809 20 227 8.0 19.3 0.00 0.00 0.00 35 1006.0
20260504232307 21 237 3.2 24.1 0.00 0.00 0.00 35 1005.8
20260504231803 21 266 3.2 14.5 0.00 0.00 0.00 35 1005.9
20260504231300 21 209 16.1 22.5 0.00 0.00 0.00 34 1005.9
20260504230756 21 219 25.7 32.2 0.00 0.00 0.00 33 1005.6
20260504230254 21 251 4.8 14.5 0.00 0.00 0.00 33 1005.6
20260504225753 21 242 11.3 19.3 0.00 0.00 0.00 33 1005.5
20260504225248 21 230 9.7 20.9 0.00 0.00 0.00 33 1005.7
20260504224746 21 261 8.0 25.7 0.00 0.00 0.00 34 1005.5
20260504224243 21 241 16.1 25.7 0.00 0.00 0.00 33 1005.3
20260504223739 21 295 9.7 30.6 0.00 0.00 0.00 33 1005.4
20260504223235 21 253 12.9 22.5 0.00 0.00 0.00 33 1005.5
20260504222732 21 236 12.9 30.6 0.00 0.00 0.00 32 1005.2
20260504222229 22 222 11.3 19.3 0.00 0.00 0.00 32 1005.6
20260504221726 22 263 14.5 27.4 0.00 0.00 0.00 33 1005.5
20260504221223 22 201 24.1 30.6 0.00 0.00 0.00 32 1005.3
20260504220720 21 242 19.3 22.5 0.00 0.00 0.00 32 1005.4
20260504220217 21 262 11.3 24.1 0.00 0.00 0.00 32 1005.1
20260504215714 22 290 6.4 32.2 0.00 0.00 0.00 31 1005.4
20260504215211 22 267 8.0 32.2 0.00 0.00 0.00 31 1005.2
20260504214707 22 225 27.4 40.2 0.00 0.00 0.00 31 1005.3
20260504214203 22 248 14.5 29.0 0.00 0.00 0.00 32 1005.6
20260504213700 22 261 9.7 25.7 0.00 0.00 0.00 32 1005.2
20260504213157 22 231 8.0 33.8 0.00 0.00 0.00 31 1005.4
20260504212653 22 267 20.9 38.6 0.00 0.00 0.00 31 1005.5
20260504212150 22 221 17.7 33.8 0.00 0.00 0.00 31 1005.1
20260504211647 22 263 9.7 16.1 0.00 0.00 0.00 31 1005.1
20260504211144 22 247 16.1 25.7 0.00 0.00 0.00 31 1005.5
20260504210642 22 238 11.3 41.8 0.00 0.00 0.00 31 1005.3
20260504210138 22 246 17.7 32.2 0.00 0.00 0.00 30 1005.4
20260504205636 22 237 14.5 45.1 0.00 0.00 0.00 30 1005.4
20260504205132 21 214 17.7 37.0 0.00 0.00 0.00 32 1005.6
20260504204631 22 279 11.3 27.4 0.00 0.00 0.00 30 1005.5
20260504204130 22 257 8.0 22.5 0.00 0.00 0.00 31 1005.5
20260504203628 22 293 9.7 32.2 0.00 0.00 0.00 30 1005.6
20260504203126 22 218 29.0 29.0 0.00 0.00 0.00 30 1005.5
20260504202625 22 286 11.3 33.8 0.00 0.00 0.00 30 1005.6
20260504202123 22 272 9.7 27.4 0.00 0.00 0.00 30 1005.6
20260504201619 22 263 11.3 33.8 0.00 0.00 0.00 30 1005.4
20260504201117 22 255 20.9 46.7 0.00 0.00 0.00 30 1005.5
20260504200614 23 245 25.7 35.4 0.00 0.00 0.00 29 1005.5
20260504200110 22 252 6.4 33.8 0.00 0.00 0.00 30 1005.7
20260504195607 22 278 25.7 37.0 0.00 0.00 0.00 30 1005.6
20260504195103 21 258 11.3 38.6 0.00 0.00 0.00 31 1005.6
20260504194600 21 252 19.3 41.8 0.00 0.00 0.00 31 1005.6
20260504194055 22 247 40.2 40.2 0.00 0.00 0.00 29 1005.5
20260504193552 22 251 24.1 45.1 0.00 0.00 0.00 30 1005.8
20260504193051 21 219 22.5 38.6 0.00 0.00 0.00 31 1005.7
20260504192549 21 235 24.1 41.8 0.00 0.00 0.00 30 1005.7
20260504192046 22 250 22.5 43.5 0.00 0.00 0.00 30 1005.8
20260504191544 22 273 16.1 27.4 0.00 0.00 0.00 30 1005.9
20260504191040 21 253 17.7 45.1 0.00 0.00 0.00 30 1005.9
20260504190537 22 216 20.9 41.8 0.00 0.00 0.00 31 1005.9
20260504190032 21 230 9.7 40.2 0.00 0.00 0.00 30 1006.0
20260504185530 22 294 11.3 77.2 0.00 0.00 0.00 31 1006.0
20260504185026 21 240 9.7 38.6 0.00 0.00 0.00 30 1006.0
20260504184521 21 247 37.0 46.7 0.00 0.00 0.00 30 1006.1
20260504184017 21 260 12.9 41.8 0.00 0.00 0.00 32 1006.2
20260504183515 21 271 14.5 43.5 0.00 0.00 0.00 30 1006.2
20260504183013 21 242 30.6 53.1 0.00 0.00 0.00 30 1006.2
20260504182509 21 209 17.7 41.8 0.00 0.00 0.00 30 1006.3
20260504182007 21 226 54.7 54.7 0.00 0.00 0.00 31 1006.3
20260504181503 21 227 33.8 57.9 0.00 0.00 0.00 30 1006.4
20260504181002 21 236 16.1 38.6 0.00 0.00 0.00 32 1006.4
20260504180500 21 217 24.1 43.5 0.00 0.00 0.00 31 1006.4
20260504175959 20 274 8.0 43.5 0.00 0.00 0.00 32 1006.2
20260504175455 21 271 22.5 54.7 0.00 0.00 0.00 31 1006.5
20260504174953 21 235 11.3 40.2 0.00 0.00 0.00 30 1006.4
20260504174450 21 244 16.1 46.7 0.00 0.00 0.00 31 1006.5
20260504173947 20 271 20.9 48.3 0.00 0.00 0.00 32 1006.9
20260504173443 21 269 6.4 35.4 0.00 0.00 0.00 33 1006.6
20260504172942 20 288 24.1 45.1 0.00 0.00 0.00 32 1006.7
20260504172437 20 265 14.5 57.9 0.00 0.00 0.00 32 1006.9
20260504171934 20 293 32.2 40.2 0.00 0.00 0.00 32 1006.8
20260504171431 20 273 24.1 43.5 0.00 0.00 0.00 32 1006.9
20260504170928 20 245 22.5 54.7 0.00 0.00 0.00 31 1006.7
20260504170424 20 232 19.3 48.3 0.00 0.00 0.00 34 1006.8
20260504160343 19 236 16.1 54.7 0.00 0.00 0.00 36 1007.3
20260504150808 18 274 16.1 35.4 0.00 0.00 0.00 39 1008.3
20260504150304 17 271 17.7 24.1 0.00 0.00 0.00 39 1008.7
20260504141235 16 243 19.3 43.5 0.00 0.00 0.00 41 1009.2
20260504140731 16 254 32.2 38.6 0.00 0.00 0.00 41 1009.3
20260504140227 16 268 9.7 29.0 0.00 0.00 0.00 42 1009.2
20260504130655 15 246 30.6 38.6 0.00 0.00 0.00 45 1009.9
20260504130151 15 232 22.5 24.1 0.00 0.00 0.00 45 1010.2
20260504120116 11 253 17.7 24.1 0.00 0.00 0.00 54 1011.0
20260504110543 8 195 6.4 12.9 0.00 0.00 0.00 60 1011.0
20260504100500 7 234 4.8 12.9 0.00 0.00 0.00 62 1010.7
20260504081858 7 246 4.8 11.3 0.00 0.00 0.00 61 1010.6
20260504081354 7 227 3.2 9.7 0.00 0.00 0.00 60 1010.5
20260504080850 7 198 8.0 11.3 0.00 0.00 0.00 60 1010.5
20260504080348 7 227 3.2 9.7 0.00 0.00 0.00 60 1010.5
20260504070315 6 228 4.8 9.7 0.00 0.00 0.00 60 1010.3
20260504060235 5 243 12.9 12.9 0.00 0.00 0.00 64 1010.5